Location: Marne
(34.0056°N, 117.9064°W)
Time: 03:58:22
(UTC+00:00)

NOSS 0 Rocket - Pass Details

Date: 18 January 2020
Orbit: 935 x 955 km, 70.0° (Epoch: 19 February)

Event Time Altitude Azimuth Distance (km) Brightness Sun altitude
Rises 02:47:21 0° 339° (NNW) 3,629 7.1 -20.5°
Reaches altitude 10° 02:49:54 10° 341° (NNW) 2,678 6.4 -21.0°
Maximum altitude 02:56:08 79° 68° (ENE) 967 3.8 -22.3°
Drops below altitude 10° 03:02:18 10° 155° (SSE) 2,650 6.1 -23.6°
Sets 03:04:48 0° 156° (SSE) 3,588 6.8 -24.1°
